Details for Ryanair at GCRR




Go Back


Latest METAR
Local Time

GCRR 160930Z 02017KT 9999 BKN025 24/16 Q1020
16/08/2018, 10:49:18

Description
Results
Ryanair Logo
Number of Pilots based at GCRR
0 Pilots Based here
Number of Ryanair Flights Departed from GCRR
5 Flights Departed
Number of Ryanair Flights Arrived at GCRR
4 Flights Arrived
Number of Ryanair Schedules Departing from GCRR
41 Schedules
Number of Ryanair Schedules Arriving at GCRR
40 Schedules
Number of Ryanair Schedules Departing from GCRR availible today
10 Schedules Today
Number of Ryanair Schedules Arriving at GCRR availible today
10 Schedules Today
Average Landing Rate at GCRR
-209 fpm
Ryanair Average Landing Rate at GCRR
-194 fpm
Total Fuel Purchased at GCRR by Ryanair
28,693.57 kgs / 63,257.84 lbs

Pilots Based at GCRR


Pilot ID
Pilot Name
Pilot Rank
No. of Flights
No. of Flying Hours
There are no pilots assigned to this hub!   Will you be the first?
Content